sat.trackr.live / text

‹ back to catalog

STARLINK-35169

NORAD 65465 · 2025-195H

PAYLOAD ACTIVE UNKNOWN

§ Identity

Operator
Country
US
Launch date
2025-09-03
Launch site
AFETR
Launch vehicle
Mass (kg)
RCS (m²)

Purposes: comms

External: N2YO · Heavens-Above · Gunter

§ Orbital elements

Epoch: 2026-09-20T00:20:07.176480Z

Period
93.85 min
Inclination
53.1581°
Eccentricity
0.0001719
Mean motion
15.34408842 rev/d
Perigee alt
461.5 km
Apogee alt
463.9 km
Semi-major
6,840.8 km
B*
6.9331e-4
RAAN
72.1606°
Arg perigee
74.1398°
Mean anomaly
285.9794°
Rev number
5,979

§ Raw data

STARLINK-351691 65465U 25195H   26263.01397195  .00023127  00000+0  69331-3 0  99912 65465  53.1581  72.1606 0001719  74.1398 285.9794 15.34408842 59796

JSON: /api/v1/satellites/65465 · /tle

For live sub-satellite position, see the globe view (requires WebGL).

§ Visibility from observer

Set your observer location to see the next 7 days of passes ≥ 10°. The values pass through the URL so the page stays shareable.

No JS? Fill the form by hand. The geolocation button needs JavaScript.